Flag for Bolivia Weather past 2 weeks in Cochabamba, Bolivia

Now
48 °F

Clear.


Feels Like: 48 °F
Forecast: 45 / 80 °F
Wind: No wind

Location: Cochabamba Airport

Current Time: Aug 5, 2015 at 9:09:20 AM

Latest Report: Aug 5, 2015 at 8:00 AM


Visibility: 2 mi

Pressure: 30.33 "Hg (22.18 "Hg at 2584m altitude)

Humidity: 62%

Dew point: 36 °F

Location of CochabambaLocation

Historic Weather in Cochabamba — Graph

°F

Cochabamba temperature yesterday

Maximum temperature yesterday: 81 °F (at 3:00 PM)
Minimum temperature yesterday: 43 °F (at 7:00 AM)
Average temperature yesterday: 62 °F

Past Weeks' High & Low Weather Summary

 TemperatureHumidityPressure
High84 °F (Aug 2, 4:00 PM)82% (Jul 25, 3:00 AM)30.45 "Hg (Jul 25, 3:00 AM)
Low41 °F (Jul 30, 7:00 AM)5% (Jul 28, 4:00 PM)30.07 "Hg (Aug 2, 5:00 PM)
Average61 °F38%30.26 "Hg
* Reported Jul 21 8:00 AM — Aug 5 8:00 AM, Cochabamba, Weather by CustomWeather, © 2015

Note: Actual official high and low records may vary slightly from our data, if they occured in-between our weather recording intervals... More about our weather records

Advertising

Cochabamba weather history for previous 24 hours

 ConditionsComfort  
Time TempWeatherWind HumidityBarometerVisibility
8:00 AM
Wed, Aug 5
48 °FClear.No wind62%30.33 "Hg2 mi
7:00 AM45 °FClear.3 mph76%30.30 "Hg2 mi
6:00 AM46 °FClear.No wind66%30.27 "Hg5 mi
5:00 AM46 °FClear.3 mph71%30.27 "HgN/A
4:00 AM50 °FClear.No wind62%30.24 "HgN/A
3:00 AM48 °FClear.No wind71%30.24 "HgN/A
2:00 AM52 °FClear.No wind58%30.24 "HgN/A
1:00 AM55 °FClear.No wind51%30.27 "HgN/A
12:00 AM55 °FClear.No wind55%30.27 "HgN/A
11:00 PM
Tue, Aug 4
57 °FClear.3 mph48%30.27 "HgN/A
10:00 PM63 °FPassing clouds.6 mph37%30.24 "HgN/A
9:00 PM64 °FPassing clouds.6 mph37%30.24 "HgN/A
8:00 PM64 °FPassing clouds.5 mph40%30.21 "HgN/A
7:00 PM70 °FPassing clouds.5 mph27%30.15 "HgN/A
6:00 PM75 °FSandstorm.6 mph19%30.15 "Hg5 mi
5:00 PM75 °FPartly sunny.15 mph18%30.15 "Hg3 mi
4:00 PM81 °FScattered clouds.10 mph13%30.15 "Hg6 mi
3:00 PM81 °FPassing clouds.5 mph11%30.15 "Hg6 mi
2:00 PM79 °FPassing clouds.6 mph13%30.18 "Hg6 mi
1:00 PM75 °FPassing clouds.3 mph18%30.24 "Hg6 mi
12:00 PM70 °FPassing clouds.No wind29%30.30 "Hg4 mi
11:00 AM66 °FPassing clouds.No wind32%30.33 "Hg4 mi
10:00 AM64 °FClear.No wind34%30.36 "Hg4 mi
9:00 AM57 °FPassing clouds.No wind41%30.36 "Hg4 mi
Weather by CustomWeather, © 2015

See weather overviewHow to use our weather pages